[ hide orbit diagram ]
For accurate long-term ephemerides, please instead use our Horizons system.This orbit viewer was implemented using two-body methods, and hence should not be used for determining accurate long-term trajectories (over several years or decades) or planetary encounter circumstances.
Orbital Elements at Epoch 2459000.5 (2020-May-31.0) TDB
Reference: JPL 17 (heliocentric ecliptic J2000)
Element | Value | Uncertainty (1-sigma) | Units |
e | .1314541472671654 | 1.0423e-07 | |
a | 3.195234104214688 | 2.9879e-08 | au |
q | 2.775207329726181 | 3.3776e-07 | au |
i | 1.129258194468354 | 9.9066e-06 | deg |
node | 170.8526125325607 | 0.00028323 | deg |
peri | 20.37239817452942 | 0.00028405 | deg |
M | 262.1129026168059 | 1.9621e-05 | deg |
tp | 2459567.751171226452 (2021-Dec-19.25117123) | 0.00011596 | TDB |
period | 2086.183236612987 5.71 | 2.9263e-05 8.012e-08 | d yr |
n | .1725639405407534 | 2.4205e-09 | deg/d |
Q | 3.615260878703195 | 3.3807e-08 | au |
|
| | Orbit Determination Parameters
Additional Information
|
[ show covariance matrix ]
Physical Parameter Table
Parameter |
Symbol |
Value |
Units |
Sigma |
Reference |
Notes |
absolute magnitude |
H |
15.9 |
|
n/a |
MPO453471 |
|
|
101751 (1999 FQ17) Discovered 1999-Mar-23 by Spacewatch at Kitt Peak |
Reference: 20051019/Numbers.arc | Last Updated: 2005-10-26 |
|
[ show close-approach data ]
|